[[{"header":{"parameterUnit":"m.s-1","parameterCategory":1,"la1":30.2991,"la2":30.254,"lo1":-89.0895,"lo2":-89.0444,"dy":0.0017,"dx":0.0017,"nx":28,"ny":28,"refTime":"2023-08-11T09:00:00:Z","depth":0,"parameterNumber":2,"parameterNumberName":"U-component_of_WINDS"},"data":[0,0,0,0,0,0,0,0,0,0,0,0,0,0,0,0,0,0,0,0,0,0,0,0,0,0,0,0,0,0,0,0,0,0,0,0,0,0,0,0,0,0,0,0,0,0,0,0,0,0,0,0,0,0,0,0,0,0,1.7057,1.7058,0,1.7153,1.7154,1.7155,1.7097,1.7094,1.7092,1.7089,1.7189,1.7194,1.7199,0,0,0,0,0,0,0,0,0,0,0,0,0,1.6824,1.6829,1.7057,1.7058,1.706,1.7153,1.7154,1.7155,1.7098,1.7094,1.7091,1.7088,1.7187,1.7193,1.7199,0,0,0,0,0,0,0,0,0,0,0,0,0,1.6923,1.683,1.7057,1.7042,1.7042,1.7152,1.7154,1.7156,1.7098,1.7094,1.709,1.7086,1.7185,1.7192,1.72,1.7332,0,0,1.7224,1.7227,0,0,0,0,0,0,0,0,1.6918,1.6932,1.7043,1.7043,1.7043,1.7109,1.7108,1.7215,1.7099,1.7077,1.7089,1.7084,1.7165,1.7175,1.7202,1.7336,1.734,1.7225,1.723,1.7233,1.7235,0,0,0,0,0,0,0,1.6911,1.6928,1.7095,1.7045,1.7045,1.703,1.704,1.7128,1.7143,1.7078,1.7075,1.7087,1.7165,1.7194,1.7204,1.7342,1.7225,1.7232,1.7236,1.7239,1.7588,1.7592,0,0,0,0,0,0,1.6905,1.6922,1.7092,1.7098,1.6969,1.7038,1.7049,1.7092,1.7142,1.7146,1.709,1.7083,1.7183,1.7195,1.7207,1.7364,1.7233,1.724,1.7245,1.7583,1.7589,1.7594,0,0,0,0,0,0,1.69,1.6921,1.7088,1.7009,1.7029,1.7046,1.7095,1.7096,1.7125,1.7151,1.7153,1.7118,1.718,1.7196,1.7301,1.7366,1.7244,1.7251,1.7578,1.7585,1.7591,1.7679,0,0,0,0,0,0,1.6894,1.692,1.697,1.7011,1.7034,1.7181,1.71,1.7101,1.7139,1.7131,1.7177,1.7181,1.7178,1.7289,1.7308,1.7375,1.7257,1.7572,1.7581,1.7589,1.767,1.7688,1.7703,0,0,0,0,0,1.6886,1.6991,1.6973,1.6994,1.7097,1.7184,1.7198,1.7192,1.7145,1.7195,1.7211,1.718,1.7356,1.73,1.7322,1.7392,1.7568,1.7579,1.7589,1.7663,1.7685,1.7703,0,0,0,0,0,0,1.6959,1.6996,1.6976,1.7098,1.7138,1.7175,1.7238,1.7215,1.727,1.7261,1.7251,1.7262,1.7371,1.7392,1.7329,1.7521,1.7454,1.7469,1.7504,1.7525,1.7541,1.7534,1.7263,0,0,0,0,0,1.6989,1.7057,1.7086,1.719,1.7212,1.7222,1.726,1.7251,1.7293,1.731,1.7334,1.7376,1.744,1.7483,1.7544,1.7672,1.7681,1.7731,1.7747,1.776,1.7774,1.7843,1.7865,1.7627,1.7627,1.7627,0,0,1.7052,1.7081,1.7125,1.7206,1.7236,1.7307,1.7237,1.7314,1.7367,1.7322,1.7422,1.7441,1.7487,1.7604,1.7657,1.7624,1.7841,1.7773,1.7784,1.779,1.7855,1.7878,1.7898,1.7634,1.7633,1.7632,0,0,1.7203,1.7232,1.7322,1.7353,1.74,1.7405,1.7427,1.7467,1.7477,1.7577,1.7545,1.7607,1.7719,1.7752,1.7784,1.7947,1.792,1.7966,1.8053,1.812,1.8139,1.8155,1.8213,1.8234,1.798,1.798,1.798,0,1.7276,1.7381,1.7371,1.7451,1.7488,1.7449,1.754,1.7571,1.7636,1.7662,1.7624,1.7763,1.7791,1.7915,1.7954,1.7981,1.8006,1.7962,1.8137,1.8153,1.8168,1.8224,1.8246,1.7985,1.7985,1.7984,1.7984,0,1.7469,1.7542,1.7609,1.7671,1.7715,1.78,1.7803,1.7848,1.7836,1.7845,1.7947,1.7979,1.8046,1.8074,1.8063,1.8197,1.8175,1.8137,1.8071,1.8197,1.8249,1.827,1.7993,1.7991,1.7989,1.7988,0,0,1.7671,1.7725,1.775,1.7777,1.7825,1.7881,1.7964,1.8028,1.8068,1.8112,1.8182,1.8276,1.8241,1.8277,1.8269,1.8328,1.8454,1.8283,1.8284,1.8314,1.8604,1.8633,1.8658,1.8436,1.844,1.8443,1.86,0,1.7825,1.797,1.7963,1.8099,1.8166,1.8129,1.8201,1.8238,1.8249,1.8307,1.8319,1.8386,1.8334,1.8356,1.8412,1.8427,1.8513,1.8415,1.8501,1.8504,1.8492,1.8685,1.8716,1.8863,1.862,1.8624,1.8626,0,1.8026,1.8077,1.822,1.8256,1.8284,1.8349,1.8407,1.8463,1.8504,1.8507,1.8547,1.8528,1.8612,1.8542,1.8657,1.8591,1.8625,1.8637,1.8643,1.8652,1.8574,1.87,1.8909,1.8932,1.8658,1.8655,1.8653,0,1.816,1.8264,1.8362,1.8387,1.8432,1.8479,1.8499,1.8536,1.8575,1.8625,1.865,1.8709,1.8742,1.8788,1.8787,1.8736,1.8903,1.8833,1.8909,1.8909,1.8947,1.8945,1.9167,1.8967,1.8967,1.8967,1.8966,0,1.8334,1.8423,1.8423,1.8484,1.8582,1.8572,1.8669,1.8685,1.8717,1.8781,1.8752,1.8812,1.8805,1.8865,1.8864,1.8959,1.8974,1.898,1.8979,1.8983,1.8983,1.9007,1.8997,1.8973,1.8971,1.897,1.8969,0,1.8501,1.8505,1.861,1.8643,1.8654,1.8724,1.8753,1.881,1.8817,1.8897,1.8916,1.8927,1.8996,1.8998,1.9078,1.9077,1.9194,1.9181,1.918,1.9178,1.9254,1.9247,1.95,1.9532,1.9311,1.9313,1.9315,0,1.8613,1.868,1.872,1.876,1.8784,1.8849,1.8888,1.888,1.8922,1.8972,1.9023,1.9089,1.9142,1.9254,1.927,1.933,1.9319,1.9403,1.9328,1.933,1.9321,1.9318,1.9325,1.9418,1.9421,1.9423,1.9424,0,1.8811,1.8809,1.8867,1.8925,1.8972,1.9017,1.9059,1.9093,1.909,1.9138,1.9208,1.9249,1.9329,1.9396,1.9454,1.9475,1.945,1.9447,1.9468,1.9475,1.9472,1.9475,1.9221,1.9442,1.9441,1.9439,1.9438,1.9438,1.8955,1.9012,1.905,1.9114,1.9145,1.9184,1.924,1.9253,1.9311,1.9376,1.9367,1.9445,1.9483,1.9558,1.9584,1.9645,1.9616,1.9646,1.9654,1.9662,1.967,1.9461,1.9655,1.9654,1.9654,1.9654,1.9653,0,1.9152,1.9174,1.9233,1.9292,1.9343,1.9313,1.9357,1.9402,1.9471,1.9508,1.956,1.964,1.9703,1.9723,1.9784,1.9829,1.9819,1.9846,1.9843,1.9848,1.9692,1.9669,1.9853,1.9853,1.9853,1.9853,1.9853,1.9852,1.9261,1.9357,1.936,1.947,1.9491,1.9567,1.9595,1.9631,1.966,1.9751,1.9803,1.9815,1.9845,1.9908,1.9965,1.9969,1.9994,2.0025,2.0025,1.9879,1.9859,1.984,1.9818,2.003,2.0031,2.0176,2.0177,2.0178]},{"header":{"parameterUnit":"m.s-1","parameterCategory":1,"la1":30.2991,"la2":30.254,"lo1":-89.0895,"lo2":-89.0444,"dy":0.0017,"dx":0.0017,"nx":28,"ny":28,"refTime":"2023-08-11T09:00:00:Z","depth":0,"parameterNumber":3,"parameterNumberName":"V-component_of_WINDS"},"data":[0,0,0,0,0,0,0,0,0,0,0,0,0,0,0,0,0,0,0,0,0,0,0,0,0,0,0,0,0,0,0,0,0,0,0,0,0,0,0,0,0,0,0,0,0,0,0,0,0,0,0,0,0,0,0,0,0,0,5.3577,5.3577,0,5.3623,5.3623,5.3624,5.3542,5.354,5.3537,5.3534,5.3576,5.358,5.3584,0,0,0,0,0,0,0,0,0,0,0,0,0,5.3413,5.3416,5.3577,5.3577,5.3578,5.3623,5.3623,5.3624,5.3543,5.3539,5.3536,5.3533,5.3575,5.358,5.3584,0,0,0,0,0,0,0,0,0,0,0,0,0,5.3474,5.3417,5.3577,5.3543,5.354,5.3622,5.3623,5.3624,5.3543,5.3539,5.3535,5.3531,5.3574,5.3579,5.3585,5.37,0,0,5.3601,5.3604,0,0,0,0,0,0,0,0,5.347,5.348,5.3547,5.3545,5.3543,5.3573,5.3581,5.3649,5.3544,5.3542,5.3534,5.3529,5.3578,5.3583,5.36,5.3702,5.3704,5.3602,5.3605,5.3607,5.3609,0,0,0,0,0,0,0,5.3466,5.3477,5.3595,5.3548,5.3546,5.3523,5.3528,5.3593,5.3582,5.3542,5.3536,5.3543,5.3576,5.3595,5.3601,5.3704,5.3602,5.3607,5.361,5.3612,5.39,5.3904,0,0,0,0,0,0,5.3467,5.3474,5.3593,5.3596,5.3496,5.353,5.3534,5.3567,5.3581,5.358,5.3547,5.3539,5.3588,5.3594,5.3602,5.3736,5.3607,5.3613,5.3616,5.3896,5.3901,5.3906,0,0,0,0,0,0,5.3464,5.3478,5.3591,5.3534,5.3546,5.3537,5.3574,5.357,5.3589,5.3585,5.3582,5.3569,5.3585,5.3594,5.3676,5.3737,5.3615,5.362,5.3891,5.3898,5.3904,5.4007,0,0,0,0,0,0,5.3459,5.3478,5.3523,5.3535,5.355,5.3667,5.3578,5.3574,5.36,5.359,5.3605,5.3603,5.3583,5.3668,5.3681,5.3742,5.3624,5.3885,5.3894,5.3901,5.3998,5.4017,5.4032,0,0,0,0,0,5.3454,5.355,5.3526,5.3541,5.3607,5.3671,5.3678,5.3654,5.3605,5.3649,5.3646,5.3603,5.3728,5.3677,5.3691,5.3755,5.3881,5.3891,5.3901,5.3991,5.4013,5.4032,0,0,0,0,0,0,5.3544,5.3551,5.3524,5.3628,5.3649,5.3657,5.3712,5.3679,5.3714,5.3703,5.367,5.3674,5.3762,5.3766,5.3709,5.3866,5.3796,5.3809,5.386,5.3881,5.3897,5.3894,5.3629,0,0,0,0,0,5.3576,5.3629,5.3632,5.3722,5.3735,5.3722,5.3749,5.3728,5.3748,5.3757,5.3759,5.3779,5.3823,5.3852,5.3892,5.3999,5.3999,5.4049,5.4066,5.408,5.4091,5.4146,5.4167,5.3938,5.3938,5.3938,0,0,5.3642,5.3653,5.3688,5.3741,5.3755,5.3808,5.373,5.379,5.3829,5.3765,5.3842,5.3845,5.3865,5.3959,5.4001,5.3966,5.4155,5.4092,5.4104,5.4107,5.4158,5.418,5.4199,5.3945,5.3944,5.3943,0,0,5.379,5.3805,5.3881,5.3897,5.392,5.391,5.3929,5.3941,5.3941,5.4018,5.3971,5.4015,5.4092,5.4107,5.4125,5.4278,5.4239,5.4292,5.4379,5.4433,5.4451,5.4467,5.4519,5.4539,5.4303,5.4303,5.4304,0,5.3869,5.395,5.3924,5.3987,5.4011,5.3957,5.4032,5.4048,5.4083,5.4099,5.406,5.4154,5.4163,5.4259,5.4297,5.4314,5.4332,5.4289,5.4451,5.4467,5.4481,5.453,5.4551,5.431,5.4309,5.4308,5.4308,0,5.4045,5.4101,5.416,5.4196,5.4225,5.4295,5.4277,5.431,5.4287,5.4281,5.4359,5.4369,5.4409,5.443,5.4408,5.4523,5.45,5.4457,5.4386,5.4509,5.4555,5.4574,5.4319,5.4316,5.4314,5.4313,0,0,5.4251,5.4271,5.4292,5.4307,5.4328,5.437,5.4436,5.4476,5.4504,5.4529,5.4582,5.4648,5.4607,5.4628,5.4606,5.4653,5.4771,5.4603,5.4603,5.4633,5.4896,5.4928,5.4951,5.4746,5.4749,5.4752,5.4894,0,5.4396,5.4512,5.4489,5.4601,5.4651,5.46,5.4656,5.4674,5.467,5.4711,5.4705,5.4752,5.4696,5.4707,5.4752,5.4748,5.4823,5.4737,5.4792,5.4795,5.4788,5.4975,5.5009,5.5142,5.4912,5.4915,5.4917,0,5.4582,5.4615,5.4732,5.4743,5.4763,5.4815,5.4849,5.4889,5.4907,5.4901,5.4924,5.4893,5.4955,5.4885,5.497,5.4912,5.4933,5.4934,5.4938,5.4941,5.4863,5.4981,5.5184,5.5204,5.4946,5.4943,5.4941,0,5.4718,5.4792,5.4871,5.4885,5.49,5.4938,5.4945,5.496,5.4985,5.5014,5.503,5.5066,5.5085,5.5113,5.5092,5.5043,5.518,5.5108,5.5174,5.5175,5.5204,5.5202,5.5412,5.5221,5.5221,5.522,5.522,0,5.4883,5.4956,5.4932,5.498,5.506,5.5032,5.5111,5.5112,5.5125,5.5171,5.5129,5.5173,5.5143,5.5184,5.5167,5.5239,5.5248,5.5243,5.5238,5.5246,5.5247,5.5259,5.5248,5.5226,5.5224,5.5223,5.5222,0,5.5048,5.5035,5.5118,5.5125,5.5129,5.5187,5.5192,5.5236,5.5229,5.5288,5.53,5.5288,5.5333,5.5315,5.5364,5.5352,5.5444,5.5427,5.5438,5.5433,5.55,5.5493,5.5723,5.5751,5.5544,5.5546,5.5547,0,5.5153,5.5208,5.5222,5.525,5.5261,5.5308,5.5333,5.5308,5.5336,5.536,5.54,5.5442,5.5475,5.555,5.5544,5.558,5.5563,5.5641,5.5568,5.5574,5.5562,5.5558,5.5562,5.5655,5.5657,5.5659,5.5661,0,5.534,5.5331,5.537,5.5407,5.5439,5.5466,5.549,5.5515,5.5491,5.5524,5.557,5.5596,5.5645,5.5686,5.5718,5.5724,5.5688,5.5684,5.5701,5.571,5.5713,5.571,5.5476,5.5679,5.5677,5.5676,5.5675,5.5674,5.5477,5.5523,5.5539,5.5584,5.5599,5.5622,5.5663,5.5661,5.5699,5.5738,5.572,5.5774,5.5788,5.5828,5.5839,5.5879,5.5848,5.5873,5.5879,5.5885,5.5893,5.5708,5.5885,5.5884,5.5884,5.5883,5.5883,0,5.566,5.5668,5.571,5.5744,5.5778,5.5743,5.5767,5.5797,5.5845,5.5863,5.5895,5.5948,5.5988,5.5986,5.6022,5.6054,5.6039,5.6065,5.6061,5.6063,5.592,5.5901,5.6077,5.6077,5.6077,5.6077,5.6076,5.6076,5.576,5.5834,5.5827,5.5908,5.5914,5.5968,5.5984,5.6004,5.6017,5.6078,5.6112,5.611,5.6119,5.6155,5.619,5.6188,5.6202,5.6234,5.6226,5.6092,5.6073,5.6054,5.6036,5.6238,5.6238,5.6365,5.6366,5.6367]}]]